JTE1717 YSCB-YSSY

Flight info

Callsign JTE1717
Flight time 0h 38m
Altitude 15000
Route CB W423 CULIN Y59 RIVET
Aircraft RJ1H/M-SDFGIRWY/LB1

Departure

Time 2026-05-04 10:27
Airport Canberra Airport (YSCB)

Arrival

Time 2026-05-04 11:06
Airport Sydney Kingsford Smith International Airport (YSSY)
Time Latitude Longitude Altitude Speed Heading
2026-05-04 10:00 -35.30676 149.19101 1879 ft 0 kts 230°
2026-05-04 10:19 -35.30638 149.19154 1876 ft 4 kts 194°
2026-05-04 10:19 -35.30630 149.19154 1875 ft 0 kts 169°
2026-05-04 10:22 -35.30631 149.19155 1875 ft 2 kts 165°
2026-05-04 10:22 -35.30657 149.19192 1878 ft 8 kts 128°
2026-05-04 10:23 -35.30732 149.19239 1879 ft 18 kts 177°
2026-05-04 10:23 -35.30853 149.19240 1877 ft 17 kts 180°
2026-05-04 10:25 -35.31455 149.19442 1879 ft 5 kts 19°
2026-05-04 10:25 -35.31342 149.19441 1879 ft 37 kts 359°
2026-05-04 10:25 -35.31200 149.19440 1879 ft 0 kts
2026-05-04 10:27 -35.31069 149.19441 1879 ft 51 kts
2026-05-04 10:27 -35.30506 149.19442 1879 ft 107 kts
2026-05-04 10:27 -35.29641 149.19442 2079 ft 133 kts
2026-05-04 10:27 -35.28691 149.19464 2567 ft 137 kts
2026-05-04 10:28 -35.27734 149.19875 2874 ft 164 kts 26°
2026-05-04 10:28 -35.26657 149.20517 3297 ft 176 kts 22°
2026-05-04 10:28 -35.25530 149.21161 3850 ft 182 kts 19°
2026-05-04 10:28 -35.24365 149.21792 4453 ft 185 kts 15°
2026-05-04 10:29 -35.23155 149.22397 5035 ft 190 kts 13°
2026-05-04 10:29 -35.21900 149.22972 5492 ft 201 kts 11°
2026-05-04 10:29 -35.20492 149.23542 5578 ft 224 kts
2026-05-04 10:29 -35.18984 149.24110 6115 ft 225 kts
2026-05-04 10:30 -35.17502 149.24649 7069 ft 219 kts
2026-05-04 10:30 -35.16058 149.25154 8090 ft 213 kts
2026-05-04 10:30 -35.14638 149.25614 9081 ft 209 kts
2026-05-04 10:30 -35.13239 149.26057 10047 ft 207 kts
2026-05-04 10:31 -35.11829 149.26500 10802 ft 211 kts
2026-05-04 10:31 -35.10406 149.26935 11506 ft 216 kts
2026-05-04 10:32 -35.01047 149.29950 15020 ft 261 kts
2026-05-04 10:33 -34.99210 149.30539 15104 ft 285 kts
2026-05-04 10:33 -34.97222 149.31187 15119 ft 306 kts
2026-05-04 10:33 -34.95110 149.31884 15127 ft 323 kts
2026-05-04 10:33 -34.92927 149.32645 15133 ft 338 kts 10°
2026-05-04 10:34 -34.90587 149.33367 15139 ft 344 kts
2026-05-04 10:34 -34.88286 149.33164 15155 ft 334 kts 345°
2026-05-04 10:34 -34.86025 149.32565 15138 ft 331 kts 344°
2026-05-04 10:34 -34.83776 149.31952 15132 ft 332 kts 343°
2026-05-04 10:35 -34.81526 149.31298 15125 ft 332 kts 343°
2026-05-04 10:35 -34.79283 149.30626 15118 ft 332 kts 342°
2026-05-04 10:35 -34.77046 149.29942 15117 ft 332 kts 342°
2026-05-04 10:35 -34.74799 149.29254 15111 ft 332 kts 342°
2026-05-04 10:36 -34.72554 149.28560 15102 ft 334 kts 342°
2026-05-04 10:36 -34.70333 149.27872 15108 ft 334 kts 342°
2026-05-04 10:36 -34.68087 149.27182 15108 ft 334 kts 342°
2026-05-04 10:36 -34.65811 149.26639 15108 ft 338 kts 354°
2026-05-04 10:37 -34.63469 149.27232 15118 ft 357 kts 19°
2026-05-04 10:37 -34.61463 149.29094 15133 ft 375 kts 43°
2026-05-04 10:37 -34.60081 149.31833 15139 ft 386 kts 57°
2026-05-04 10:37 -34.58926 149.34791 15131 ft 388 kts 58°
2026-05-04 10:39 -34.51709 149.52194 15102 ft 380 kts 49°
2026-05-04 10:39 -34.50223 149.54792 15104 ft 379 kts 47°
2026-05-04 10:39 -34.48690 149.57393 15100 ft 379 kts 47°
2026-05-04 10:40 -34.47165 149.59997 15097 ft 379 kts 47°
2026-05-04 10:40 -34.45639 149.62597 15095 ft 378 kts 47°
2026-05-04 10:40 -34.44122 149.65192 15092 ft 379 kts 48°
2026-05-04 10:40 -34.42616 149.67815 15102 ft 379 kts 48°
2026-05-04 10:41 -34.41119 149.70439 15106 ft 379 kts 48°
2026-05-04 10:41 -34.39611 149.73053 15096 ft 379 kts 48°
2026-05-04 10:41 -34.38097 149.75652 15091 ft 378 kts 48°
2026-05-04 10:41 -34.36596 149.78277 15096 ft 380 kts 49°
2026-05-04 10:42 -34.35091 149.80905 15103 ft 379 kts 48°
2026-05-04 10:42 -34.33572 149.83506 15089 ft 379 kts 47°
2026-05-04 10:42 -34.32061 149.86121 15094 ft 379 kts 48°
2026-05-04 10:42 -34.30558 149.88743 15091 ft 380 kts 48°
2026-05-04 10:43 -34.29076 149.91320 15089 ft 376 kts 49°
2026-05-04 10:44 -34.18638 150.09395 15038 ft 379 kts 55°
2026-05-04 10:45 -34.17546 150.12333 15055 ft 387 kts 64°
2026-05-04 10:45 -34.16718 150.15392 15073 ft 389 kts 68°
2026-05-04 10:45 -34.15994 150.18547 14957 ft 386 kts 69°
2026-05-04 10:45 -34.15348 150.21637 14662 ft 376 kts 71°
2026-05-04 10:46 -34.14735 150.24700 14336 ft 374 kts 70°
2026-05-04 10:46 -34.14116 150.27730 14018 ft 370 kts 70°
2026-05-04 10:46 -34.13492 150.30743 13667 ft 370 kts 70°
2026-05-04 10:46 -34.12845 150.33739 13288 ft 367 kts 70°
2026-05-04 10:47 -34.12184 150.36731 12929 ft 368 kts 70°
2026-05-04 10:47 -34.11535 150.39702 12581 ft 365 kts 70°
2026-05-04 10:47 -34.10900 150.42660 12224 ft 364 kts 70°
2026-05-04 10:47 -34.10251 150.45604 11868 ft 361 kts 70°
2026-05-04 10:49 -34.06323 150.63790 8988 ft 296 kts 70°
2026-05-04 10:49 -34.05792 150.66181 8578 ft 295 kts 70°
2026-05-04 10:50 -34.05277 150.68571 8183 ft 294 kts 70°
2026-05-04 10:51 -34.01698 150.84805 6069 ft 274 kts 68°
2026-05-04 10:52 -34.01185 150.86990 6042 ft 270 kts 68°
2026-05-04 10:52 -34.00661 150.89178 6040 ft 276 kts 67°
2026-05-04 10:52 -34.00106 150.91450 6038 ft 283 kts 68°
2026-05-04 10:54 -33.96595 151.07406 6043 ft 281 kts 70°
2026-05-04 10:54 -33.96132 151.09702 6050 ft 282 kts 71°
2026-05-04 10:56 -33.97207 151.25757 6078 ft 299 kts 112°
2026-05-04 10:56 -33.98104 151.28018 6073 ft 299 kts 112°
2026-05-04 10:56 -33.99095 151.30217 6065 ft 301 kts 126°
2026-05-04 10:57 -34.00736 151.31794 5921 ft 307 kts 157°
2026-05-04 10:57 -34.02741 151.32663 5590 ft 307 kts 161°
2026-05-04 10:57 -34.04762 151.33519 5258 ft 307 kts 161°
2026-05-04 10:57 -34.06780 151.34360 4913 ft 307 kts 162°
2026-05-04 10:58 -34.08802 151.35176 4560 ft 305 kts 162°
2026-05-04 10:58 -34.10813 151.35965 4210 ft 303 kts 163°
2026-05-04 10:58 -34.12787 151.36728 3858 ft 300 kts 162°
2026-05-04 10:58 -34.14761 151.37471 3506 ft 299 kts 163°
2026-05-04 10:59 -34.16735 151.38201 3153 ft 295 kts 163°
2026-05-04 10:59 -34.18747 151.38545 2805 ft 292 kts 189°
2026-05-04 10:59 -34.20591 151.37704 2474 ft 281 kts 221°
2026-05-04 10:59 -34.21785 151.35922 2203 ft 268 kts 253°
2026-05-04 11:00 -34.22056 151.33793 2092 ft 251 kts 279°
2026-05-04 11:01 -34.15320 151.24192 2037 ft 236 kts 345°
2026-05-04 11:02 -34.13738 151.23708 2039 ft 236 kts 347°
2026-05-04 11:02 -34.12138 151.23274 2010 ft 234 kts 349°
2026-05-04 11:05 -33.96804 151.19308 57 ft 125 kts 346°
2026-05-04 11:06 -33.96044 151.19108 28 ft 97 kts 348°
2026-05-04 11:06 -33.95473 151.18960 25 ft 70 kts 348°
2026-05-04 11:06 -33.95142 151.18874 24 ft 26 kts 348°
2026-05-04 11:06 -33.95053 151.18787 27 ft 15 kts 274°
2026-05-04 11:08 -33.95173 151.18085 30 ft 0 kts 279°
2026-05-04 11:10 -33.94831 151.17873 29 ft 16 kts 348°
2026-05-04 11:12 -33.94282 151.17719 29 ft 14 kts 346°
2026-05-04 11:12 -33.94211 151.17698 29 ft 8 kts 346°
2026-05-04 11:12 -33.94176 151.17687 29 ft 0 kts 346°
2026-05-04 11:13 -33.94170 151.17685 29 ft 4 kts 346°
2026-05-04 11:14 -33.94085 151.17661 28 ft 19 kts 347°
2026-05-04 11:14 -33.93964 151.17628 28 ft 12 kts 347°
2026-05-04 11:14 -33.93930 151.17618 28 ft 6 kts 347°
2026-05-04 11:16 -33.93281 151.17478 29 ft 17 kts 348°
2026-05-04 11:16 -33.93170 151.17449 30 ft 15 kts 348°
2026-05-04 11:16 -33.93072 151.17424 30 ft 13 kts 348°
2026-05-04 11:17 -33.92996 151.17423 30 ft 12 kts 43°
2026-05-04 11:17 -33.92995 151.17524 30 ft 12 kts 100°
2026-05-04 11:19 -33.93048 151.18184 30 ft 3 kts 32°
2026-05-04 11:19 -33.93049 151.18196 30 ft 2 kts 134°
2026-05-04 11:19 -33.93070 151.18221 30 ft 3 kts 135°
2026-05-04 11:19 -33.93079 151.18232 30 ft 1 kts 135°
2026-05-04 11:20 -33.93081 151.18234 30 ft 0 kts 135°